Date String (YYYY-MM-DD hh:mm:ss) UTC,Instrument flags,absolute air pressure of the measurement (hPa),sample flow rate (lpm),inlet stack bypass flow (lpm),air temperature of the measurement (°C),ambient temperature measured by the external sensor (°C),aerosol sample conditioner tube jacket temperature (°C),OPC LED temperature (°C),internal box temperature (°C),relative humidity of the measurement (%),span deviation,mass concentration of particles derived from Lorenz-Mie calculation of OPC scattering (μg/m³),mass concentration of particles derived from Lorenz-Mie calculation of OPC scattering (μg/m³),mass concentration of particles derived from Lorenz-Mie calculation of OPC scattering (μg/m³)
DateTimeUTC,F1_M11,P_M11,Q1_M11,Q2_M11,T1_M11,T2_M11,T3_M11,T4_M11,T5_M11,U1_M11,ZSPAN_M11,X0_M11,X2_M11,X1_M11
2023-11-09 10:00:00,SystemResetWarning,0834.2,5.00,000.00,020.2,019.3,000.0,028.5,021.6,18.9,0000.0,0004.44,0003.26,0003.03
2023-11-09 10:01:00,SystemResetWarning,0834.2,5.00,000.00,020.2,019.3,000.0,028.5,021.6,18.9,0000.0,0004.32,0003.24,0003.00
2023-11-09 10:02:00,SystemResetWarning,0834.2,5.00,000.00,020.2,019.3,000.0,028.5,021.5,19.0,0000.0,0004.22,0003.22,0003.00
2023-11-09 10:03:00,SystemResetWarning,0834.1,5.00,000.00,020.2,019.3,000.0,028.5,021.5,19.1,0000.0,0004.22,0003.22,0003.00
2023-11-09 10:04:00,SystemResetWarning,0834.2,5.00,000.00,020.2,019.3,000.0,028.5,021.5,18.8,0000.0,0004.20,0003.21,0002.99
2023-11-09 10:05:00,SystemResetWarning,0834.2,5.00,000.00,020.2,019.3,000.0,028.5,021.5,18.8,0000.0,0004.08,0003.17,0002.98
2023-11-09 10:06:00,SystemResetWarning,0834.2,4.99,000.00,020.2,019.3,000.0,028.5,021.6,18.8,0000.0,0004.13,0003.18,0002.98
2023-11-09 10:07:00,SystemResetWarning,0834.2,5.00,000.00,020.2,019.3,000.0,028.5,021.6,18.7,0000.0,0004.09,0003.17,0002.97
2023-11-09 10:08:00,SystemResetWarning,0834.2,5.00,000.00,020.2,019.3,000.0,028.5,021.6,18.6,0000.0,0004.11,0003.19,0002.97
2023-11-09 10:09:00,SystemResetWarning,0834.1,5.00,000.00,020.2,019.3,000.0,028.5,021.6,18.6,0000.0,0004.13,0003.19,0002.99
2023-11-09 10:10:00,SystemResetWarning,0834.1,5.00,000.00,020.2,019.3,000.0,028.5,021.6,18.5,0000.0,0004.00,0003.20,0003.01
2023-11-09 10:11:00,SystemResetWarning,0834.2,5.01,000.00,020.2,019.3,000.0,028.5,021.6,18.5,0000.0,0003.93,0003.19,0003.01
2023-11-09 10:12:00,SystemResetWarning,0834.1,5.01,000.00,020.2,019.4,000.0,028.5,021.6,18.4,0000.0,0003.94,0003.19,0003.02
2023-11-09 10:13:00,SystemResetWarning,0834.1,5.01,000.00,020.2,019.4,000.0,028.5,021.6,18.3,0000.0,0003.90,0003.17,0002.98
2023-11-09 10:14:00,SystemResetWarning,0834.1,5.00,000.00,020.2,019.4,000.0,028.5,021.6,18.3,0000.0,0003.86,0003.16,0002.96
2023-11-09 10:15:00,SystemResetWarning,0834.1,4.99,000.00,020.2,019.4,000.0,028.5,021.6,18.1,0000.0,0003.89,0003.15,0002.93
2023-11-09 10:16:00,SystemResetWarning,0834.1,5.00,000.00,020.2,019.4,000.0,028.5,021.6,17.9,0000.0,0003.89,0003.14,0002.91
2023-11-09 10:17:00,SystemResetWarning,0834.1,5.00,000.00,020.2,019.3,000.0,028.5,021.6,17.9,0000.0,0003.78,0003.11,0002.87
2023-11-09 10:18:00,SystemResetWarning,0834.0,5.00,000.00,020.1,019.3,000.0,028.5,021.6,18.0,0000.0,0003.73,0003.08,0002.84
2023-11-09 10:19:00,SystemResetWarning,0834.1,4.99,000.00,020.1,019.3,000.0,028.5,021.6,18.0,0000.0,0003.64,0003.02,0002.79
2023-11-09 10:20:00,SystemResetWarning,0834.1,5.00,000.00,020.1,019.3,000.0,028.5,021.5,18.0,0000.0,0003.59,0002.97,0002.75
2023-11-09 10:21:00,SystemResetWarning,0834.1,5.00,000.00,020.1,019.3,000.0,028.5,021.5,17.9,0000.0,0003.52,0002.93,0002.72
2023-11-09 10:22:00,SystemResetWarning,0834.0,5.00,000.00,020.1,019.2,000.0,028.5,021.5,17.6,0000.0,0003.53,0002.92,0002.71
2023-11-09 10:23:00,SystemResetWarning,0834.0,5.00,000.00,020.1,019.2,000.0,028.5,021.5,17.3,0000.0,0003.47,0002.89,0002.69
2023-11-09 10:24:00,SystemResetWarning,0834.0,5.01,000.00,020.1,019.2,000.0,028.5,021.5,17.2,0000.0,0003.42,0002.87,0002.68
2023-11-09 10:25:00,SystemResetWarning,0834.0,5.00,000.00,020.1,019.1,000.0,028.5,021.5,17.0,0000.0,0003.37,0002.84,0002.65
2023-11-09 10:26:00,SystemResetWarning,0834.0,4.99,000.00,020.0,019.1,000.0,028.5,021.6,16.9,0000.0,0003.31,0002.80,0002.62
2023-11-09 10:27:00,SystemResetWarning,0834.1,4.99,000.00,020.1,019.3,000.0,028.5,021.9,16.8,0000.0,0003.22,0002.74,0002.58
2023-11-09 10:28:00,SystemResetWarning,0834.0,5.01,000.00,020.3,020.0,000.0,028.5,022.3,16.7,0000.0,0003.16,0002.69,0002.53
2023-11-09 10:29:00,SystemResetWarning,0834.0,5.01,000.00,020.4,020.3,000.0,028.6,022.3,16.5,0000.0,0003.11,0002.64,0002.49
2023-11-09 10:30:00,SystemResetWarning,0834.0,4.99,000.00,020.4,020.2,000.0,028.6,022.2,16.5,0000.0,0003.11,0002.61,0002.46
2023-11-09 10:31:00,SystemResetWarning,0834.0,4.98,000.00,020.5,020.2,000.0,028.6,022.1,16.5,0000.0,0003.10,0002.58,0002.41
2023-11-09 10:32:00,SystemResetWarning,0834.0,5.00,000.00,020.5,020.1,000.0,028.6,022.0,16.5,0000.0,0003.06,0002.55,0002.39
2023-11-09 10:33:00,SystemResetWarning,0834.0,5.00,000.00,020.5,020.0,000.0,028.6,022.0,16.5,0000.0,0003.01,0002.52,0002.35
2023-11-09 10:34:00,SystemResetWarning,0834.0,5.00,000.00,020.4,020.0,000.0,028.7,021.9,16.6,0000.0,0002.94,0002.47,0002.32
2023-11-09 10:35:00,SystemResetWarning,0834.0,5.00,000.00,020.4,019.9,000.0,028.7,021.9,16.8,0000.0,0002.96,0002.45,0002.29
2023-11-09 10:36:00,SystemResetWarning,0834.0,5.00,000.00,020.4,019.9,000.0,028.7,021.9,18.3,0000.0,0003.04,0002.44,0002.27
2023-11-09 10:37:00,SystemResetWarning,0834.0,5.00,000.00,020.4,019.8,000.0,028.7,021.9,19.3,0000.0,0003.01,0002.43,0002.26
2023-11-09 10:38:00,SystemResetWarning,0833.9,5.00,000.00,020.4,019.8,000.0,028.7,021.9,19.3,0000.0,0003.06,0002.45,0002.27
2023-11-09 10:39:00,SystemResetWarning,0833.9,5.00,000.00,020.4,019.7,000.0,028.7,021.9,18.5,0000.0,0003.28,0002.61,0002.38
2023-11-09 10:40:00,SystemResetWarning,0833.9,5.00,000.00,020.4,019.7,000.0,028.7,021.8,18.0,0000.0,0003.58,0002.82,0002.53
2023-11-09 10:41:00,SystemResetWarning,0833.9,5.00,000.00,020.4,019.6,000.0,028.7,021.8,17.5,0000.0,0003.72,0002.94,0002.66
2023-11-09 10:42:00,SystemResetWarning,0833.9,5.00,000.00,020.4,019.6,000.0,028.7,021.8,17.4,0000.0,0003.80,0003.01,0002.73
2023-11-09 10:43:00,SystemResetWarning,0833.8,5.01,000.00,020.4,019.6,000.0,028.7,021.7,17.5,0000.0,0003.92,0003.06,0002.77
2023-11-09 10:44:00,SystemResetWarning,0833.8,5.01,000.00,020.4,019.5,000.0,028.7,021.7,17.5,0000.0,0003.98,0003.10,0002.79
2023-11-09 10:45:00,SystemResetWarning,0833.8,5.00,000.00,020.3,019.5,000.0,028.7,021.7,17.7,0000.0,0004.01,0003.12,0002.82
2023-11-09 10:46:00,SystemResetWarning,0833.8,5.00,000.00,020.3,019.5,000.0,028.7,021.7,17.9,0000.0,0004.07,0003.14,0002.86
2023-11-09 10:47:00,SystemResetWarning,0833.8,5.00,000.00,020.3,019.4,000.0,028.7,021.7,17.9,0000.0,0004.03,0003.16,0002.91
2023-11-09 10:48:00,SystemResetWarning,0833.8,5.00,000.00,020.3,019.4,000.0,028.7,021.7,17.9,0000.0,0004.06,0003.18,0002.94
2023-11-09 10:49:00,SystemResetWarning,0833.8,4.99,000.00,020.3,019.4,000.0,028.7,021.6,18.0,0000.0,0004.12,0003.20,0002.97
2023-11-09 10:50:00,SystemResetWarning,0833.8,5.00,000.00,020.3,019.4,000.0,028.7,021.6,18.4,0000.0,0004.11,0003.17,0002.93
2023-11-09 10:51:00,SystemResetWarning,0833.8,5.00,000.00,020.3,019.3,000.0,028.7,021.6,18.6,0000.0,0003.82,0003.05,0002.83
2023-11-09 10:52:00,SystemResetWarning,0833.8,5.01,000.00,020.3,019.3,000.0,028.7,021.6,18.9,0000.0,0003.69,0002.98,0002.76
2023-11-09 10:53:00,SystemResetWarning,0833.8,5.02,000.00,020.3,019.3,000.0,028.7,021.6,19.2,0000.0,0003.72,0002.97,0002.73
2023-11-09 10:54:00,SystemResetWarning,0833.8,4.99,000.00,020.3,019.3,000.0,028.7,021.6,19.5,0000.0,0003.74,0003.03,0002.77
2023-11-09 10:55:00,SystemResetWarning,0833.8,4.99,000.00,020.3,019.3,000.0,028.7,021.6,19.8,0000.0,0003.80,0003.09,0002.84
2023-11-09 10:56:00,SystemResetWarning,0833.8,5.00,000.00,020.2,019.3,000.0,028.7,021.6,20.2,0000.0,0003.92,0003.15,0002.92
2023-11-09 10:57:00,SystemResetWarning,0833.8,5.01,000.00,020.2,019.3,000.0,028.7,021.6,20.5,0000.0,0004.16,0003.20,0003.01
2023-11-09 10:58:00,SystemResetWarning,0833.8,5.00,000.00,020.2,019.3,000.0,028.7,021.6,20.8,0000.0,0004.28,0003.26,0003.10
2023-11-09 10:59:00,SystemResetWarning,0833.7,5.01,000.00,020.2,019.2,000.0,028.7,021.6,21.1,0000.0,0004.42,0003.34,0003.17
